カタログに戻る

THORAD AGENA D DEB

運用中LEO
NORAD 4819·DEBRIS·🇺🇸 United States

打ち上げ Apr 8, 1970 から Vandenberg Space Force Base

Loading…

次のパス (今後24時間)

TLE

最新Source: Space-Track

元期: Sep 14, 2026, 13:14 UTC

1  4819U 70025EA  26257.55202890  .00003364  00000-0  10867-2 0  9999
2  4819 100.1017 294.0224 0028943  21.8181 338.4227 14.39724618857020

AllMySatでTHORAD AGENA D DEBをリアルタイム追跡

Download on the App Store